Year,Month,Day,Hour,Minute,Value (Times are PST for temperature in C)
2015,06,27,00,00,20.60
2015,06,27,00,01,20.60
2015,06,27,00,02,20.50
2015,06,27,00,03,20.50
2015,06,27,00,04,20.40
2015,06,27,00,05,20.40
2015,06,27,00,06,20.40
2015,06,27,00,07,20.40
2015,06,27,00,08,20.30
2015,06,27,00,09,20.30
2015,06,27,00,10,20.30
2015,06,27,00,11,20.30
2015,06,27,00,12,20.20
2015,06,27,00,13,20.20
2015,06,27,00,14,20.20
2015,06,27,00,15,20.20
2015,06,27,00,16,20.20
2015,06,27,00,17,20.30
2015,06,27,00,18,20.30
2015,06,27,00,19,20.30
2015,06,27,00,20,20.30
2015,06,27,00,21,20.30
2015,06,27,00,22,20.30
2015,06,27,00,23,20.20
2015,06,27,00,24,20.20
2015,06,27,00,25,20.20
2015,06,27,00,26,20.20
2015,06,27,00,27,20.20
2015,06,27,00,28,20.10
2015,06,27,00,29,20.10
2015,06,27,00,30,20.10
2015,06,27,00,31,20.10
2015,06,27,00,32,20.10
2015,06,27,00,33,20.10
2015,06,27,00,34,20.10
2015,06,27,00,35,20.10
2015,06,27,00,36,20.00
2015,06,27,00,37,20.00
2015,06,27,00,38,19.90
2015,06,27,00,39,19.90
2015,06,27,00,40,19.90
2015,06,27,00,41,19.80
2015,06,27,00,42,19.80
2015,06,27,00,43,19.70
2015,06,27,00,44,19.70
2015,06,27,00,45,19.60
2015,06,27,00,46,19.60
2015,06,27,00,47,19.60
2015,06,27,00,48,19.60
2015,06,27,00,49,19.50
2015,06,27,00,50,19.50
2015,06,27,00,51,19.50
2015,06,27,00,52,19.40
2015,06,27,00,53,19.40
2015,06,27,00,54,19.40
2015,06,27,00,55,19.40
2015,06,27,00,56,19.40
2015,06,27,00,57,19.40
2015,06,27,00,58,19.40
2015,06,27,00,59,19.40
2015,06,27,01,00,19.40
2015,06,27,01,01,19.30
2015,06,27,01,02,19.30
2015,06,27,01,03,19.30
2015,06,27,01,04,19.30
2015,06,27,01,05,19.30
2015,06,27,01,06,19.30
2015,06,27,01,07,19.30
2015,06,27,01,08,19.30
2015,06,27,01,09,19.30
2015,06,27,01,10,19.30
2015,06,27,01,11,19.30
2015,06,27,01,12,19.30
2015,06,27,01,13,19.20
2015,06,27,01,14,19.20
2015,06,27,01,15,19.20
2015,06,27,01,16,19.30
2015,06,27,01,17,19.30
2015,06,27,01,18,19.20
2015,06,27,01,19,19.20
2015,06,27,01,20,19.20
2015,06,27,01,21,19.20
2015,06,27,01,22,19.20
2015,06,27,01,23,19.20
2015,06,27,01,24,19.10
2015,06,27,01,25,19.10
2015,06,27,01,26,19.10
2015,06,27,01,27,19.10
2015,06,27,01,28,19.10
2015,06,27,01,29,19.10
2015,06,27,01,30,19.10
2015,06,27,01,31,19.10
2015,06,27,01,32,19.00
2015,06,27,01,33,19.10
2015,06,27,01,34,19.10
2015,06,27,01,35,19.10
2015,06,27,01,36,19.10
2015,06,27,01,37,19.10
2015,06,27,01,38,19.10
2015,06,27,01,39,19.10
2015,06,27,01,40,19.00
2015,06,27,01,41,19.00
2015,06,27,01,42,19.00
2015,06,27,01,43,19.00
2015,06,27,01,44,18.90
2015,06,27,01,45,18.90
2015,06,27,01,46,18.90
2015,06,27,01,47,18.80
2015,06,27,01,48,18.80
2015,06,27,01,49,18.80
2015,06,27,01,50,18.70
2015,06,27,01,51,18.70
2015,06,27,01,52,18.70
2015,06,27,01,53,18.70
2015,06,27,01,54,18.60
2015,06,27,01,55,18.60
2015,06,27,01,56,18.60
2015,06,27,01,57,18.60
2015,06,27,01,58,18.60
2015,06,27,01,59,18.60
2015,06,27,02,00,18.60
2015,06,27,02,01,18.60
2015,06,27,02,02,18.50
2015,06,27,02,03,18.50
2015,06,27,02,04,18.50
2015,06,27,02,05,18.50
2015,06,27,02,06,18.50
2015,06,27,02,07,18.50
2015,06,27,02,08,18.50
2015,06,27,02,09,18.50
2015,06,27,02,10,18.50
2015,06,27,02,11,18.50
2015,06,27,02,12,18.50
2015,06,27,02,13,18.40
2015,06,27,02,14,18.40
2015,06,27,02,15,18.40
2015,06,27,02,16,18.40
2015,06,27,02,17,18.40
2015,06,27,02,18,18.30
2015,06,27,02,19,18.30
2015,06,27,02,20,18.30
2015,06,27,02,21,18.30
2015,06,27,02,22,18.30
2015,06,27,02,23,18.30
2015,06,27,02,24,18.20
2015,06,27,02,25,18.20
2015,06,27,02,26,18.20
2015,06,27,02,27,18.20
2015,06,27,02,28,18.20
2015,06,27,02,29,18.10
2015,06,27,02,30,18.10
2015,06,27,02,31,18.10
2015,06,27,02,32,18.10
2015,06,27,02,33,18.10
2015,06,27,02,34,18.10
2015,06,27,02,35,18.00
2015,06,27,02,36,18.00
2015,06,27,02,37,18.00
2015,06,27,02,38,18.00
2015,06,27,02,39,18.00
2015,06,27,02,40,18.00
2015,06,27,02,41,18.00
2015,06,27,02,42,18.00
2015,06,27,02,43,18.00
2015,06,27,02,44,18.00
2015,06,27,02,45,18.00
2015,06,27,02,46,18.00
2015,06,27,02,47,18.00
2015,06,27,02,48,18.00
2015,06,27,02,49,17.90
2015,06,27,02,50,17.90
2015,06,27,02,51,18.00
2015,06,27,02,52,18.00
2015,06,27,02,53,18.00
2015,06,27,02,54,18.00
2015,06,27,02,55,17.90
2015,06,27,02,56,17.90
2015,06,27,02,57,17.90
2015,06,27,02,58,18.00
2015,06,27,02,59,18.00
2015,06,27,03,00,18.00
2015,06,27,03,01,18.00
2015,06,27,03,02,18.00
2015,06,27,03,03,18.00
2015,06,27,03,04,18.00
2015,06,27,03,05,17.90
2015,06,27,03,06,17.90
2015,06,27,03,07,17.90
2015,06,27,03,08,17.90
2015,06,27,03,09,17.90
2015,06,27,03,10,17.90
2015,06,27,03,11,17.90
2015,06,27,03,12,17.80
2015,06,27,03,13,17.80
2015,06,27,03,14,17.80
2015,06,27,03,15,17.80
2015,06,27,03,16,17.80
2015,06,27,03,17,17.80
2015,06,27,03,18,17.80
2015,06,27,03,19,17.80
2015,06,27,03,20,17.80
2015,06,27,03,21,17.80
2015,06,27,03,22,17.80
2015,06,27,03,23,17.80
2015,06,27,03,24,17.70
2015,06,27,03,25,17.70
2015,06,27,03,26,17.70
2015,06,27,03,27,17.70
2015,06,27,03,28,17.70
2015,06,27,03,29,17.70
2015,06,27,03,30,17.60
2015,06,27,03,31,17.60
2015,06,27,03,32,17.60
2015,06,27,03,33,17.60
2015,06,27,03,34,17.50
2015,06,27,03,35,17.50
2015,06,27,03,36,17.50
2015,06,27,03,37,17.40
2015,06,27,03,38,17.40
2015,06,27,03,39,17.40
2015,06,27,03,40,17.40
2015,06,27,03,41,17.40
2015,06,27,03,42,17.30
2015,06,27,03,43,17.30
2015,06,27,03,44,17.30
2015,06,27,03,45,17.30
2015,06,27,03,46,17.20
2015,06,27,03,47,17.20
2015,06,27,03,48,17.20
2015,06,27,03,49,17.10
2015,06,27,03,50,17.10
2015,06,27,03,51,17.10
2015,06,27,03,52,17.00
2015,06,27,03,53,17.00
2015,06,27,03,54,17.00
2015,06,27,03,55,17.00
2015,06,27,03,56,16.90
2015,06,27,03,57,16.90
2015,06,27,03,58,16.90
2015,06,27,03,59,16.90
2015,06,27,04,00,16.90
2015,06,27,04,01,16.90
2015,06,27,04,02,16.90
2015,06,27,04,03,16.90
2015,06,27,04,04,16.90
2015,06,27,04,05,16.90
2015,06,27,04,06,16.90
2015,06,27,04,07,16.90
2015,06,27,04,08,16.90
2015,06,27,04,09,16.90
2015,06,27,04,10,16.90
2015,06,27,04,11,16.90
2015,06,27,04,12,16.80
2015,06,27,04,13,16.80
2015,06,27,04,14,16.80
2015,06,27,04,15,16.80
2015,06,27,04,16,16.80
2015,06,27,04,17,16.80
2015,06,27,04,18,16.80
2015,06,27,04,19,16.80
2015,06,27,04,20,16.80
2015,06,27,04,21,16.80
2015,06,27,04,22,16.80
2015,06,27,04,23,16.80
2015,06,27,04,24,16.80
2015,06,27,04,25,16.80
2015,06,27,04,26,16.80
2015,06,27,04,27,16.80
2015,06,27,04,28,16.80
2015,06,27,04,29,16.80
2015,06,27,04,30,16.80
2015,06,27,04,31,16.80
2015,06,27,04,32,16.80
2015,06,27,04,33,16.70
2015,06,27,04,34,16.70
2015,06,27,04,35,16.70
2015,06,27,04,36,16.70
2015,06,27,04,37,16.70
2015,06,27,04,38,16.70
2015,06,27,04,39,16.60
2015,06,27,04,40,16.60
2015,06,27,04,41,16.60
2015,06,27,04,42,16.60
2015,06,27,04,43,16.60
2015,06,27,04,44,16.60
2015,06,27,04,45,16.60
2015,06,27,04,46,16.60
2015,06,27,04,47,16.60
2015,06,27,04,48,16.60
2015,06,27,04,49,16.60
2015,06,27,04,50,16.50
2015,06,27,04,51,16.50
2015,06,27,04,52,16.50
2015,06,27,04,53,16.50
2015,06,27,04,54,16.60
2015,06,27,04,55,16.60
2015,06,27,04,56,16.60
2015,06,27,04,57,16.60
2015,06,27,04,58,16.60
2015,06,27,04,59,16.60
2015,06,27,05,00,16.60
2015,06,27,05,01,16.60
2015,06,27,05,02,16.60
2015,06,27,05,03,16.60
2015,06,27,05,04,16.60
2015,06,27,05,05,16.60
2015,06,27,05,06,16.60
2015,06,27,05,07,16.60
2015,06,27,05,08,16.60
2015,06,27,05,09,16.60
2015,06,27,05,10,16.60
2015,06,27,05,11,16.60
2015,06,27,05,12,16.50
2015,06,27,05,13,16.50
2015,06,27,05,14,16.50
2015,06,27,05,15,16.50
2015,06,27,05,16,16.50
2015,06,27,05,17,16.50
2015,06,27,05,18,16.50
2015,06,27,05,19,16.50
2015,06,27,05,20,16.50
2015,06,27,05,21,16.50
2015,06,27,05,22,16.50
2015,06,27,05,23,16.50
2015,06,27,05,24,16.50
2015,06,27,05,25,16.50
2015,06,27,05,26,16.50
2015,06,27,05,27,16.50
2015,06,27,05,28,16.50
2015,06,27,05,29,16.50
2015,06,27,05,30,16.50
2015,06,27,05,31,16.50
2015,06,27,05,32,16.50
2015,06,27,05,33,16.40
2015,06,27,05,34,16.40
2015,06,27,05,35,16.40
2015,06,27,05,36,16.40
2015,06,27,05,37,16.40
2015,06,27,05,38,16.40
2015,06,27,05,39,16.40
2015,06,27,05,40,16.40
2015,06,27,05,41,16.40
2015,06,27,05,42,16.40
2015,06,27,05,43,16.40
2015,06,27,05,44,16.30
2015,06,27,05,45,16.30
2015,06,27,05,46,16.30
2015,06,27,05,47,16.30
2015,06,27,05,48,16.30
2015,06,27,05,49,16.30
2015,06,27,05,50,16.30
2015,06,27,05,51,16.30
2015,06,27,05,52,16.30
2015,06,27,05,53,16.30
2015,06,27,05,54,16.30
2015,06,27,05,55,16.30
2015,06,27,05,56,16.30
2015,06,27,05,57,16.30
2015,06,27,05,58,16.30
2015,06,27,05,59,16.30
2015,06,27,06,00,16.30
2015,06,27,06,01,16.30
2015,06,27,06,02,16.30
2015,06,27,06,03,16.30
2015,06,27,06,04,16.30
2015,06,27,06,05,16.30
2015,06,27,06,06,16.30
2015,06,27,06,07,16.30
2015,06,27,06,08,16.40
2015,06,27,06,09,16.40
2015,06,27,06,10,16.40
2015,06,27,06,11,16.40
2015,06,27,06,12,16.40
2015,06,27,06,13,16.40
2015,06,27,06,14,16.50
2015,06,27,06,15,16.50
2015,06,27,06,16,16.50
2015,06,27,06,17,16.50
2015,06,27,06,18,16.50
2015,06,27,06,19,16.50
2015,06,27,06,20,16.60
2015,06,27,06,21,16.60
2015,06,27,06,22,16.60
2015,06,27,06,23,16.60
2015,06,27,06,24,16.60
2015,06,27,06,25,16.60
2015,06,27,06,26,16.60
2015,06,27,06,27,16.60
2015,06,27,06,28,16.60
2015,06,27,06,29,16.60
2015,06,27,06,30,16.60
2015,06,27,06,31,16.70
2015,06,27,06,32,16.70
2015,06,27,06,33,16.70
2015,06,27,06,34,16.70
2015,06,27,06,35,16.70
2015,06,27,06,36,16.80
2015,06,27,06,37,16.80
2015,06,27,06,38,16.80
2015,06,27,06,39,16.80
2015,06,27,06,40,16.90
2015,06,27,06,41,16.90
2015,06,27,06,42,17.00
2015,06,27,06,43,17.00
2015,06,27,06,44,17.00
2015,06,27,06,45,17.10
2015,06,27,06,46,17.10
2015,06,27,06,47,17.20
2015,06,27,06,48,17.20
2015,06,27,06,49,17.20
2015,06,27,06,50,17.20
2015,06,27,06,51,17.30
2015,06,27,06,52,17.30
2015,06,27,06,53,17.30
2015,06,27,06,54,17.30
2015,06,27,06,55,17.20
2015,06,27,06,56,17.20
2015,06,27,06,57,17.20
2015,06,27,06,58,17.20
2015,06,27,06,59,17.10
2015,06,27,07,00,17.10
2015,06,27,07,01,17.00
2015,06,27,07,02,17.00
2015,06,27,07,03,16.90
2015,06,27,07,04,16.90
2015,06,27,07,05,16.80
2015,06,27,07,06,16.80
2015,06,27,07,07,16.80
2015,06,27,07,08,16.70
2015,06,27,07,09,16.70
2015,06,27,07,10,16.70
2015,06,27,07,11,16.70
2015,06,27,07,12,16.70
2015,06,27,07,13,16.70
2015,06,27,07,14,16.60
2015,06,27,07,15,16.60
2015,06,27,07,16,16.60
2015,06,27,07,17,16.60
2015,06,27,07,18,16.60
2015,06,27,07,19,16.70
2015,06,27,07,20,16.70
2015,06,27,07,21,16.70
2015,06,27,07,22,16.80
2015,06,27,07,23,16.90
2015,06,27,07,24,17.00
2015,06,27,07,25,17.10
2015,06,27,07,26,17.10
2015,06,27,07,27,17.20
2015,06,27,07,28,17.30
2015,06,27,07,29,17.40
2015,06,27,07,30,17.60
2015,06,27,07,31,17.70
2015,06,27,07,32,17.80
2015,06,27,07,33,18.00
2015,06,27,07,34,18.10
2015,06,27,07,35,18.20
2015,06,27,07,36,18.40
2015,06,27,07,37,18.50
2015,06,27,07,38,18.60
2015,06,27,07,39,18.80
2015,06,27,07,40,18.90
2015,06,27,07,41,19.00
2015,06,27,07,42,19.20
2015,06,27,07,43,19.30
2015,06,27,07,44,19.40
2015,06,27,07,45,19.50
2015,06,27,07,46,19.60
2015,06,27,07,47,19.70
2015,06,27,07,48,19.70
2015,06,27,07,49,19.80
2015,06,27,07,50,19.90
2015,06,27,07,51,20.00
2015,06,27,07,52,20.10
2015,06,27,07,53,20.20
2015,06,27,07,54,20.20
2015,06,27,07,55,20.30
2015,06,27,07,56,20.40
2015,06,27,07,57,20.50
2015,06,27,07,58,20.60
2015,06,27,07,59,20.60
2015,06,27,08,00,20.70
2015,06,27,08,01,20.70
2015,06,27,08,02,20.70
2015,06,27,08,03,20.70
2015,06,27,08,04,20.70
2015,06,27,08,05,20.70
2015,06,27,08,06,20.60
2015,06,27,08,07,20.60
2015,06,27,08,08,20.60
2015,06,27,08,09,20.60
2015,06,27,08,10,20.60
2015,06,27,08,11,20.60
2015,06,27,08,12,20.50
2015,06,27,08,13,20.50
2015,06,27,08,14,20.40
2015,06,27,08,15,20.40
2015,06,27,08,16,20.40
2015,06,27,08,17,20.40
2015,06,27,08,18,20.40
2015,06,27,08,19,20.40
2015,06,27,08,20,20.40
2015,06,27,08,21,20.50
2015,06,27,08,22,20.50
2015,06,27,08,23,20.60
2015,06,27,08,24,20.70
2015,06,27,08,25,20.70
2015,06,27,08,26,20.80
2015,06,27,08,27,20.80
2015,06,27,08,28,20.80
2015,06,27,08,29,20.90
2015,06,27,08,30,20.90
2015,06,27,08,31,20.90
2015,06,27,08,32,20.90
2015,06,27,08,33,21.00
2015,06,27,08,34,21.00
2015,06,27,08,35,21.10
2015,06,27,08,36,21.10
2015,06,27,08,37,21.10
2015,06,27,08,38,21.20
2015,06,27,08,39,21.20
2015,06,27,08,40,21.20
2015,06,27,08,41,21.30
2015,06,27,08,42,21.40
2015,06,27,08,43,21.50
2015,06,27,08,44,21.50
2015,06,27,08,45,21.60
2015,06,27,08,46,21.80
2015,06,27,08,47,21.80
2015,06,27,08,48,21.90
2015,06,27,08,49,22.00
2015,06,27,08,50,22.00
2015,06,27,08,51,22.10
2015,06,27,08,52,22.20
2015,06,27,08,53,22.20
2015,06,27,08,54,22.30
2015,06,27,08,55,22.40
2015,06,27,08,56,22.50
2015,06,27,08,57,22.60
2015,06,27,08,58,22.70
2015,06,27,08,59,22.70
2015,06,27,09,00,22.80
2015,06,27,09,01,22.90
2015,06,27,09,02,23.00
2015,06,27,09,03,23.10
2015,06,27,09,04,23.20
2015,06,27,09,05,23.20
2015,06,27,09,06,23.20
2015,06,27,09,07,23.20
2015,06,27,09,08,23.30
2015,06,27,09,09,23.30
2015,06,27,09,10,23.30
2015,06,27,09,11,23.40
2015,06,27,09,12,23.40
2015,06,27,09,13,23.40
2015,06,27,09,14,23.30
2015,06,27,09,15,23.30
2015,06,27,09,16,23.30
2015,06,27,09,17,23.30
2015,06,27,09,18,23.40
2015,06,27,09,19,23.50
2015,06,27,09,20,23.50
2015,06,27,09,21,23.50
2015,06,27,09,22,23.40
2015,06,27,09,23,23.40
2015,06,27,09,24,23.30
2015,06,27,09,25,23.30
2015,06,27,09,26,23.20
2015,06,27,09,27,23.10
2015,06,27,09,28,23.00
2015,06,27,09,29,22.90
2015,06,27,09,30,22.80
2015,06,27,09,31,22.60
2015,06,27,09,32,22.50
2015,06,27,09,33,22.30
2015,06,27,09,34,22.20
2015,06,27,09,35,22.10
2015,06,27,09,36,21.90
2015,06,27,09,37,21.80
2015,06,27,09,38,21.70
2015,06,27,09,39,21.70
2015,06,27,09,40,21.60
2015,06,27,09,41,21.50
2015,06,27,09,42,21.50
2015,06,27,09,43,21.40
2015,06,27,09,44,21.40
2015,06,27,09,45,21.30
2015,06,27,09,46,21.20
2015,06,27,09,47,21.00
2015,06,27,09,48,20.90
2015,06,27,09,49,20.80
2015,06,27,09,50,20.80
2015,06,27,09,51,20.70
2015,06,27,09,52,20.70
2015,06,27,09,53,20.60
2015,06,27,09,54,20.60
2015,06,27,09,55,20.50
2015,06,27,09,56,20.50
2015,06,27,09,57,20.40
2015,06,27,09,58,20.40
2015,06,27,09,59,20.40
2015,06,27,10,00,20.40
2015,06,27,10,01,20.40
2015,06,27,10,02,20.40
2015,06,27,10,03,20.40
2015,06,27,10,04,20.50
2015,06,27,10,05,20.50
2015,06,27,10,06,20.60
2015,06,27,10,07,20.70
2015,06,27,10,08,20.80
2015,06,27,10,09,20.80
2015,06,27,10,10,20.90
2015,06,27,10,11,21.00
2015,06,27,10,12,21.10
2015,06,27,10,13,21.10
2015,06,27,10,14,21.20
2015,06,27,10,15,21.10
2015,06,27,10,16,21.10
2015,06,27,10,17,21.10
2015,06,27,10,18,21.10
2015,06,27,10,19,21.10
2015,06,27,10,20,21.10
2015,06,27,10,21,21.20
2015,06,27,10,22,21.20
2015,06,27,10,23,21.20
2015,06,27,10,24,21.30
2015,06,27,10,25,21.30
2015,06,27,10,26,21.40
2015,06,27,10,27,21.50
2015,06,27,10,28,21.60
2015,06,27,10,29,21.60
2015,06,27,10,30,21.70
2015,06,27,10,31,21.80
2015,06,27,10,32,21.90
2015,06,27,10,33,22.00
2015,06,27,10,34,22.10
2015,06,27,10,35,22.10
2015,06,27,10,36,22.20
2015,06,27,10,37,22.20
2015,06,27,10,38,22.30
2015,06,27,10,39,22.30
2015,06,27,10,40,22.30
2015,06,27,10,41,22.30
2015,06,27,10,42,22.30
2015,06,27,10,43,22.40
2015,06,27,10,44,22.40
2015,06,27,10,45,22.50
2015,06,27,10,46,22.60
2015,06,27,10,47,22.60
2015,06,27,10,48,22.70
2015,06,27,10,49,22.80
2015,06,27,10,50,22.90
2015,06,27,10,51,22.90
2015,06,27,10,52,23.00
2015,06,27,10,53,23.20
2015,06,27,10,54,23.30
2015,06,27,10,55,23.40
2015,06,27,10,56,23.50
2015,06,27,10,57,23.60
2015,06,27,10,58,23.60
2015,06,27,10,59,23.70
2015,06,27,11,00,23.70
2015,06,27,11,01,23.60
2015,06,27,11,02,23.60
2015,06,27,11,03,23.60
2015,06,27,11,04,23.60
2015,06,27,11,05,23.70
2015,06,27,11,06,23.80
2015,06,27,11,07,23.90
2015,06,27,11,08,24.00
2015,06,27,11,09,24.10
2015,06,27,11,10,24.20
2015,06,27,11,11,24.20
2015,06,27,11,12,24.30
2015,06,27,11,13,24.40
2015,06,27,11,14,24.50
2015,06,27,11,15,24.60
2015,06,27,11,16,24.70
2015,06,27,11,17,24.80
2015,06,27,11,18,24.90
2015,06,27,11,19,25.00
2015,06,27,11,20,25.10
2015,06,27,11,21,25.20
2015,06,27,11,22,25.30
2015,06,27,11,23,25.30
2015,06,27,11,24,25.30
2015,06,27,11,25,25.40
2015,06,27,11,26,25.50
2015,06,27,11,27,25.60
2015,06,27,11,28,25.60
2015,06,27,11,29,25.70
2015,06,27,11,30,25.70
2015,06,27,11,31,25.80
2015,06,27,11,32,25.80
2015,06,27,11,33,25.70
2015,06,27,11,34,25.70
2015,06,27,11,35,25.70
2015,06,27,11,36,25.60
2015,06,27,11,37,25.50
2015,06,27,11,38,25.50
2015,06,27,11,39,25.50
2015,06,27,11,40,25.60
2015,06,27,11,41,25.70
2015,06,27,11,42,25.70
2015,06,27,11,43,25.80
2015,06,27,11,44,25.80
2015,06,27,11,45,25.90
2015,06,27,11,46,26.00
2015,06,27,11,47,26.10
2015,06,27,11,48,26.10
2015,06,27,11,49,26.20
2015,06,27,11,50,26.30
2015,06,27,11,51,26.30
2015,06,27,11,52,26.30
2015,06,27,11,53,26.30
2015,06,27,11,54,26.30
2015,06,27,11,55,26.30
2015,06,27,11,56,26.30
2015,06,27,11,57,26.30
2015,06,27,11,58,26.30
2015,06,27,11,59,26.30
2015,06,27,12,00,26.30
2015,06,27,12,01,26.20
2015,06,27,12,02,26.10
2015,06,27,12,03,26.00
2015,06,27,12,04,25.90
2015,06,27,12,05,25.70
2015,06,27,12,06,25.40
2015,06,27,12,07,25.20
2015,06,27,12,08,24.80
2015,06,27,12,09,24.60
2015,06,27,12,10,24.40
2015,06,27,12,11,24.30
2015,06,27,12,12,24.20
2015,06,27,12,13,24.20
2015,06,27,12,14,24.20
2015,06,27,12,15,24.20
2015,06,27,12,16,24.20
2015,06,27,12,17,24.20
2015,06,27,12,18,24.20
2015,06,27,12,19,24.20
2015,06,27,12,20,24.20
2015,06,27,12,21,24.20
2015,06,27,12,22,24.20
2015,06,27,12,23,24.20
2015,06,27,12,24,24.20
2015,06,27,12,25,24.30
2015,06,27,12,26,24.40
2015,06,27,12,27,24.50
2015,06,27,12,28,24.60
2015,06,27,12,29,24.60
2015,06,27,12,30,24.60
2015,06,27,12,31,24.60
2015,06,27,12,32,24.50
2015,06,27,12,33,24.40
2015,06,27,12,34,24.40
2015,06,27,12,35,24.40
2015,06,27,12,36,24.40
2015,06,27,12,37,24.40
2015,06,27,12,38,24.40
2015,06,27,12,39,24.40
2015,06,27,12,40,24.40
2015,06,27,12,41,24.40
2015,06,27,12,42,24.50
2015,06,27,12,43,24.60
2015,06,27,12,44,24.70
2015,06,27,12,45,24.90
2015,06,27,12,46,25.00
2015,06,27,12,47,25.20
2015,06,27,12,48,25.30
2015,06,27,12,49,25.30
2015,06,27,12,50,25.40
2015,06,27,12,51,25.40
2015,06,27,12,52,25.40
2015,06,27,12,53,25.40
2015,06,27,12,54,25.30
2015,06,27,12,55,25.30
2015,06,27,12,56,25.20
2015,06,27,12,57,25.20
2015,06,27,12,58,25.20
2015,06,27,12,59,25.20
2015,06,27,13,00,25.20
2015,06,27,13,01,25.20
2015,06,27,13,02,25.10
2015,06,27,13,03,25.10
2015,06,27,13,04,25.20
2015,06,27,13,05,25.20
2015,06,27,13,06,25.20
2015,06,27,13,07,25.20
2015,06,27,13,08,25.20
2015,06,27,13,09,25.20
2015,06,27,13,10,25.20
2015,06,27,13,11,25.20
2015,06,27,13,12,25.10
2015,06,27,13,13,25.00
2015,06,27,13,14,24.90
2015,06,27,13,15,24.90
2015,06,27,13,16,24.80
2015,06,27,13,17,24.70
2015,06,27,13,18,24.60
2015,06,27,13,19,24.60
2015,06,27,13,20,24.50
2015,06,27,13,21,24.50
2015,06,27,13,22,24.40
2015,06,27,13,23,24.40
2015,06,27,13,24,24.30
2015,06,27,13,25,24.30
2015,06,27,13,26,24.20
2015,06,27,13,27,24.20
2015,06,27,13,28,24.20
2015,06,27,13,29,24.30
2015,06,27,13,30,24.30
2015,06,27,13,31,24.30
2015,06,27,13,32,24.30
2015,06,27,13,33,24.30
2015,06,27,13,34,24.40
2015,06,27,13,35,24.50
2015,06,27,13,36,24.60
2015,06,27,13,37,24.70
2015,06,27,13,38,24.70
2015,06,27,13,39,24.70
2015,06,27,13,40,24.70
2015,06,27,13,41,24.70
2015,06,27,13,42,24.80
2015,06,27,13,43,24.80
2015,06,27,13,44,24.80
2015,06,27,13,45,24.90
2015,06,27,13,46,24.90
2015,06,27,13,47,24.90
2015,06,27,13,48,24.90
2015,06,27,13,49,24.90
2015,06,27,13,50,24.90
2015,06,27,13,51,24.90
2015,06,27,13,52,24.90
2015,06,27,13,53,24.80
2015,06,27,13,54,24.80
2015,06,27,13,55,24.70
2015,06,27,13,56,24.60
2015,06,27,13,57,24.60
2015,06,27,13,58,24.50
2015,06,27,13,59,24.40
2015,06,27,14,00,24.30
2015,06,27,14,01,24.30
2015,06,27,14,02,24.40
2015,06,27,14,03,24.40
2015,06,27,14,04,24.50
2015,06,27,14,05,24.50
2015,06,27,14,06,24.60
2015,06,27,14,07,24.70
2015,06,27,14,08,24.80
2015,06,27,14,09,24.90
2015,06,27,14,10,25.00
2015,06,27,14,11,25.10
2015,06,27,14,12,25.10
2015,06,27,14,13,25.10
2015,06,27,14,14,25.20
2015,06,27,14,15,25.20
2015,06,27,14,16,25.20
2015,06,27,14,17,25.20
2015,06,27,14,18,25.20
2015,06,27,14,19,25.20
2015,06,27,14,20,25.20
2015,06,27,14,21,25.10
2015,06,27,14,22,25.10
2015,06,27,14,23,25.20
2015,06,27,14,24,25.20
2015,06,27,14,25,25.30
2015,06,27,14,26,25.40
2015,06,27,14,27,25.50
2015,06,27,14,28,25.60
2015,06,27,14,29,25.70
2015,06,27,14,30,25.80
2015,06,27,14,31,25.90
2015,06,27,14,32,26.00
2015,06,27,14,33,26.10
2015,06,27,14,34,26.10
2015,06,27,14,35,26.10
2015,06,27,14,36,26.20
2015,06,27,14,37,26.20
2015,06,27,14,38,26.20
2015,06,27,14,39,26.30
2015,06,27,14,40,26.30
2015,06,27,14,41,26.40
2015,06,27,14,42,26.50
2015,06,27,14,43,26.50
2015,06,27,14,44,26.60
2015,06,27,14,45,26.60
2015,06,27,14,46,26.70
2015,06,27,14,47,26.70
2015,06,27,14,48,26.80
2015,06,27,14,49,27.00
2015,06,27,14,50,27.10
2015,06,27,14,51,27.10
2015,06,27,14,52,27.10
2015,06,27,14,53,27.10
2015,06,27,14,54,27.20
2015,06,27,14,55,27.20
2015,06,27,14,56,27.20
2015,06,27,14,57,27.30
2015,06,27,14,58,27.30
2015,06,27,14,59,27.30
2015,06,27,15,00,27.30
2015,06,27,15,01,27.40
2015,06,27,15,02,27.40
2015,06,27,15,03,27.40
2015,06,27,15,04,27.50
2015,06,27,15,05,27.50
2015,06,27,15,06,27.50
2015,06,27,15,07,27.40
2015,06,27,15,08,27.30
2015,06,27,15,09,27.20
2015,06,27,15,10,27.10
2015,06,27,15,11,27.10
2015,06,27,15,12,27.00
2015,06,27,15,13,27.00
2015,06,27,15,14,26.90
2015,06,27,15,15,26.90
2015,06,27,15,16,27.00
2015,06,27,15,17,27.00
2015,06,27,15,18,27.10
2015,06,27,15,19,27.20
2015,06,27,15,20,27.30
2015,06,27,15,21,27.40
2015,06,27,15,22,27.40
2015,06,27,15,23,27.60
2015,06,27,15,24,27.70
2015,06,27,15,25,27.70
2015,06,27,15,26,27.70
2015,06,27,15,27,27.80
2015,06,27,15,28,27.70
2015,06,27,15,29,27.80
2015,06,27,15,30,27.80
2015,06,27,15,31,27.80
2015,06,27,15,32,27.90
2015,06,27,15,33,27.90
2015,06,27,15,34,27.90
2015,06,27,15,35,27.90
2015,06,27,15,36,28.00
2015,06,27,15,37,28.00
2015,06,27,15,38,28.00
2015,06,27,15,39,27.90
2015,06,27,15,40,27.90
2015,06,27,15,41,28.00
2015,06,27,15,42,28.00
2015,06,27,15,43,27.90
2015,06,27,15,44,27.90
2015,06,27,15,45,27.80
2015,06,27,15,46,27.70
2015,06,27,15,47,27.60
2015,06,27,15,48,27.50
2015,06,27,15,49,27.40
2015,06,27,15,50,27.40
2015,06,27,15,51,27.40
2015,06,27,15,52,27.40
2015,06,27,15,53,27.50
2015,06,27,15,54,27.50
2015,06,27,15,55,27.60
2015,06,27,15,56,27.70
2015,06,27,15,57,27.80
2015,06,27,15,58,27.90
2015,06,27,15,59,28.00
2015,06,27,16,00,28.00
2015,06,27,16,01,28.00
2015,06,27,16,02,27.90
2015,06,27,16,03,27.80
2015,06,27,16,04,27.70
2015,06,27,16,05,27.60
2015,06,27,16,06,27.60
2015,06,27,16,07,27.50
2015,06,27,16,08,27.60
2015,06,27,16,09,27.60
2015,06,27,16,10,27.60
2015,06,27,16,11,27.60
2015,06,27,16,12,27.70
2015,06,27,16,13,27.70
2015,06,27,16,14,27.80
2015,06,27,16,15,27.80
2015,06,27,16,16,27.80
2015,06,27,16,17,27.90
2015,06,27,16,18,28.00
2015,06,27,16,19,28.00
2015,06,27,16,20,28.10
2015,06,27,16,21,28.10
2015,06,27,16,22,28.20
2015,06,27,16,23,28.20
2015,06,27,16,24,28.20
2015,06,27,16,25,28.30
2015,06,27,16,26,28.40
2015,06,27,16,27,28.40
2015,06,27,16,28,28.50
2015,06,27,16,29,28.60
2015,06,27,16,30,28.70
2015,06,27,16,31,28.70
2015,06,27,16,32,28.80
2015,06,27,16,33,28.90
2015,06,27,16,34,29.00
2015,06,27,16,35,29.10
2015,06,27,16,36,29.20
2015,06,27,16,37,29.20
2015,06,27,16,38,29.30
2015,06,27,16,39,29.30
2015,06,27,16,40,29.30
2015,06,27,16,41,29.30
2015,06,27,16,42,29.30
2015,06,27,16,43,29.40
2015,06,27,16,44,29.40
2015,06,27,16,45,29.40
2015,06,27,16,46,29.30
2015,06,27,16,47,29.30
2015,06,27,16,48,29.30
2015,06,27,16,49,29.30
2015,06,27,16,50,29.20
2015,06,27,16,51,29.20
2015,06,27,16,52,29.20
2015,06,27,16,53,29.10
2015,06,27,16,54,29.10
2015,06,27,16,55,29.00
2015,06,27,16,56,29.00
2015,06,27,16,57,28.90
2015,06,27,16,58,28.90
2015,06,27,16,59,28.80
2015,06,27,17,00,28.80
2015,06,27,17,01,28.80
2015,06,27,17,02,28.70
2015,06,27,17,03,28.70
2015,06,27,17,04,28.70
2015,06,27,17,05,28.70
2015,06,27,17,06,28.70
2015,06,27,17,07,28.70
2015,06,27,17,08,28.70
2015,06,27,17,09,28.70
2015,06,27,17,10,28.60
2015,06,27,17,11,28.60
2015,06,27,17,12,28.60
2015,06,27,17,13,28.60
2015,06,27,17,14,28.50
2015,06,27,17,15,28.40
2015,06,27,17,16,28.30
2015,06,27,17,17,28.20
2015,06,27,17,18,28.10
2015,06,27,17,19,28.00